Weather History for Johnstown, PA

Change the Weather History Date:

Sunday, October 14, 2012

  Actual Average Record
Temperature  
Mean Temperature 60 °F 50 °F  
Max Temperature 72 °F 59 °F 87 °F (1969)
Min Temperature 50 °F 41 °F 22 °F (1957)
Degree Days  
Heating Degree Days 5 15  
Month to date heating degree days 184  
Since 1 July heating degree days 402  
Cooling Degree Days 0 0  
Month to date cooling degree days 0  
Year to date cooling degree days 382  
Growing Degree Days 10 (Base 50)    
Moisture  
Dew Point 48 °F    
Average Humidity 61    
Maximum Humidity 69    
Minimum Humidity 51    
Precipitation  
Precipitation 0.00 in 0.10 in 1.21 in (1893)
Month to date precipitation 1.46  
Year to date precipitation 25.75  
Sea Level Pressure  
Sea Level Pressure 30.01 in    
Wind  
Wind Speed 10 mph (SSW)    
Max Wind Speed 20 mph    
Max Gust Speed 26 mph    
Visibility 10 miles    
Events      
T = Trace of Precipitation, MM = Missing Value Source: NWS Daily Summary

Daily Weather History Graph

Daily Weather History Graph

Search for Another Location

Airport:

Trip Planner

Search our weather history database for the weather conditions in past years. The results will help you decide how hot, cold, wet, or windy it might be!

Date:

Astronomy

Oct. 14, 2012 Rise Set
Actual Time 7:25 AM EDT 6:36 PM EDT
Civil Twilight 6:58 AM EDT 7:03 PM EDT
Nautical Twilight 6:26 AM EDT 7:35 PM EDT
Astronomical Twilight 5:55 AM EDT 8:06 PM EDT
Moon 6:22 AM EDT (10/14) 5:54 PM EDT (10/14)
Length of Visible Light 12h 05m
Length of Day
11h 10m
Waning Crescent, 1% of the Moon is Illuminated
Oct 14
Waning Crescent
Oct 15
New
Oct 21
First Quarter
Oct 29
Full
Nov 6
Last Quarter

Hourly Weather History & Observations

Time (EDT) Temp. Dew Point Humidity Pressure Visibility Wind Dir Wind Speed Gust Speed Precip Events Conditions
12:54 AM 50.0 °F 37.0 °F 61% 30.14 in 10.0 mi SSW 6.9 mph - N/A   Partly Cloudy
1:54 AM 50.0 °F 37.9 °F 63% 30.13 in 10.0 mi South 9.2 mph - N/A   Overcast
2:54 AM 53.1 °F 39.9 °F 61% 30.13 in 10.0 mi SW 8.1 mph - N/A   Mostly Cloudy
3:54 AM 55.0 °F 42.1 °F 62% 30.12 in 10.0 mi SSW 9.2 mph - N/A   Overcast
4:54 AM 57.0 °F 44.1 °F 62% 30.11 in 10.0 mi SSW 9.2 mph - N/A   Overcast
5:54 AM 57.9 °F 46.0 °F 65% 30.11 in 10.0 mi South 11.5 mph - N/A   Overcast
6:54 AM 57.9 °F 46.0 °F 65% 30.12 in 10.0 mi SW 9.2 mph - N/A   Overcast
7:54 AM 57.0 °F 46.9 °F 69% 30.13 in 10.0 mi SSW 9.2 mph - N/A   Mostly Cloudy
8:54 AM 59.0 °F 48.0 °F 67% 30.13 in 10.0 mi SW 6.9 mph - N/A   Clear
9:54 AM 62.1 °F 48.9 °F 62% 30.11 in 10.0 mi SSW 11.5 mph 18.4 mph N/A   Partly Cloudy
10:54 AM 66.0 °F 51.1 °F 59% 30.10 in 10.0 mi WSW 12.7 mph 18.4 mph N/A   Scattered Clouds
11:54 AM 69.1 °F 53.1 °F 57% 30.07 in 10.0 mi WSW 15.0 mph 21.9 mph N/A   Scattered Clouds
12:54 PM 69.1 °F 53.1 °F 57% 30.04 in 10.0 mi WSW 13.8 mph 18.4 mph N/A   Overcast
1:54 PM 69.1 °F 54.0 °F 58% 30.01 in 10.0 mi SSW 10.4 mph - N/A   Overcast
2:54 PM 70.0 °F 52.0 °F 53% 29.97 in 10.0 mi SW 15.0 mph 23.0 mph N/A   Mostly Cloudy
4:54 PM 70.0 °F 51.1 °F 51% 29.92 in 10.0 mi SSW 13.8 mph 25.3 mph N/A   Clear
5:54 PM 66.9 °F 50.0 °F 54% 29.90 in 10.0 mi South 19.6 mph 26.5 mph N/A   Clear
6:54 PM 63.0 °F 50.0 °F 63% 29.89 in 10.0 mi SSE 17.3 mph 25.3 mph N/A   Clear
7:54 PM 62.1 °F 50.0 °F 65% 29.88 in 10.0 mi SSE 16.1 mph 24.2 mph N/A   Clear
8:54 PM 61.0 °F 50.0 °F 67% 29.86 in 10.0 mi SSE 12.7 mph 21.9 mph N/A   Clear
9:54 PM 62.1 °F 48.9 °F 62% 29.84 in 10.0 mi South 11.5 mph - N/A   Clear
10:54 PM 61.0 °F 50.0 °F 67% 29.82 in 10.0 mi South 13.8 mph - 0.00 in   Mostly Cloudy
11:54 PM 63.0 °F 48.0 °F 58% 29.79 in 10.0 mi South 10.4 mph - N/A   Overcast